GW4270 Weather Reports


time (UTC)temp
C
wind
direction
speed
KPH
gust
KPH
rain 1hr
cm
rain 24hr
cm
rain mn
cm
humidity
%
barometer
mb
20260505204509 27 141 12.9 35.4 0.00 0.00 0.00 29 1008.7
20260505204005 27 169 6.4 27.4 0.00 0.00 0.00 30 1008.7
20260505203505 26 223 9.7 33.8 0.00 0.00 0.00 29 1008.8
20260505203010 26 203 16.1 33.8 0.00 0.00 0.00 29 1008.8
20260505202502 26 217 14.5 30.6 0.00 0.00 0.00 28 1008.9
20260505202002 26 294 12.9 38.6 0.00 0.00 0.00 30 1008.8
20260505201506 26 145 16.1 38.6 0.00 0.00 0.00 28 1008.9
20260505201003 26 194 14.5 33.8 0.00 0.00 0.00 29 1008.8
20260505200503 27 184 14.5 33.8 0.00 0.00 0.00 29 1008.8
20260505200013 27 254 11.3 32.2 0.00 0.00 0.00 31 1009.0
20260505195504 27 196 14.5 33.8 0.00 0.00 0.00 29 1008.9
20260505195004 27 209 12.9 33.8 0.00 0.00 0.00 29 1009.0
20260505194506 27 178 12.9 32.2 0.00 0.00 0.00 31 1009.1
20260505194007 27 188 14.5 37.0 0.00 0.00 0.00 31 1009.1
20260505193505 27 224 16.1 37.0 0.00 0.00 0.00 33 1009.0
20260505193013 27 190 9.7 30.6 0.00 0.00 0.00 33 1009.0
20260505192507 27 194 9.7 30.6 0.00 0.00 0.00 33 1009.2
20260505192005 27 260 14.5 32.2 0.00 0.00 0.00 32 1009.2
20260505191513 27 213 16.1 32.2 0.00 0.00 0.00 33 1009.3
20260505191002 27 249 14.5 29.0 0.00 0.00 0.00 33 1009.2
20260505190507 27 226 14.5 30.6 0.00 0.00 0.00 33 1009.5
20260505190004 27 240 11.3 33.8 0.00 0.00 0.00 35 1009.6
20260505185503 27 131 19.3 33.8 0.00 0.00 0.00 34 1009.7
20260505185003 27 188 9.7 32.2 0.00 0.00 0.00 35 1009.8
20260505184508 26 186 12.9 37.0 0.00 0.00 0.00 35 1009.8
20260505184007 27 229 20.9 37.0 0.00 0.00 0.00 36 1009.9
20260505183505 27 288 14.5 27.4 0.00 0.00 0.00 35 1009.8
20260505183010 26 200 16.1 27.4 0.00 0.00 0.00 35 1010.1
20260505182506 27 205 8.0 35.4 0.00 0.00 0.00 36 1009.9
20260505182007 27 186 9.7 35.4 0.00 0.00 0.00 36 1010.1
20260505181513 27 166 12.9 29.0 0.00 0.00 0.00 34 1010.1
20260505181006 26 175 12.9 29.0 0.00 0.00 0.00 35 1010.1
20260505180510 27 179 11.3 27.4 0.00 0.00 0.00 36 1010.1
20260505180016 27 214 11.3 27.4 0.00 0.00 0.00 35 1010.2
20260505175506 27 227 4.8 24.1 0.00 0.00 0.00 33 1010.2
20260505175004 26 141 9.7 33.8 0.00 0.00 0.00 33 1010.2
20260505174506 27 214 12.9 33.8 0.00 0.00 0.00 34 1010.5
20260505174003 27 210 14.5 33.8 0.00 0.00 0.00 35 1010.5
20260505173503 27 228 12.9 29.0 0.00 0.00 0.00 32 1010.3
20260505173023 26 243 9.7 29.0 0.00 0.00 0.00 35 1010.4
20260505172505 26 211 8.0 24.1 0.00 0.00 0.00 37 1010.5
20260505172006 26 195 11.3 27.4 0.00 0.00 0.00 37 1010.5
20260505171513 26 244 9.7 32.2 0.00 0.00 0.00 37 1010.6
20260505171010 26 231 12.9 32.2 0.00 0.00 0.00 38 1010.6
20260505170509 26 224 17.7 32.2 0.00 0.00 0.00 37 1010.7
20260505170024 26 217 14.5 27.4 0.00 0.00 0.00 38 1010.7
20260505165506 26 165 9.7 20.9 0.00 0.00 0.00 38 1010.7
20260505165008 26 264 4.8 17.7 0.00 0.00 0.00 37 1010.8
20260505164540 26 178 6.4 24.1 0.00 0.00 0.00 38 1010.9
20260505164007 25 126 11.3 24.1 0.00 0.00 0.00 39 1011.0
20260505163504 26 238 8.0 24.1 0.00 0.00 0.00 39 1011.0
20260505163011 25 244 6.4 19.3 0.00 0.00 0.00 38 1011.0
20260505162504 26 190 9.7 17.7 0.00 0.00 0.00 37 1011.1
20260505162005 25 194 4.8 17.7 0.00 0.00 0.00 39 1011.2
20260505161511 25 173 4.8 17.7 0.00 0.00 0.00 42 1011.3
20260505161009 25 130 8.0 17.7 0.00 0.00 0.00 39 1011.4
20260505160507 25 249 6.4 17.7 0.00 0.00 0.00 38 1011.4
20260505153026 24 230 6.4 11.3 0.00 0.00 0.00 41 1012.1
20260505152511 24 221 3.2 12.9 0.00 0.00 0.00 43 1012.1
20260505152012 23 128 4.8 16.1 0.00 0.00 0.00 43 1012.0
20260505151512 24 167 3.2 17.7 0.00 0.00 0.00 42 1012.0
20260505151006 23 207 8.0 17.7 0.00 0.00 0.00 42 1012.0
20260505150506 23 216 6.4 16.1 0.00 0.00 0.00 43 1011.9
20260505140502 21 54 3.2 11.3 0.00 0.00 0.00 51 1011.8
20260505125001 17 113 1.6 6.4 0.00 0.00 0.00 61 1012.1
20260505124502 17 212 0.0 6.4 0.00 0.00 0.00 61 1012.1
20260505124005 17 190 3.2 6.4 0.00 0.00 0.00 61 1012.2
20260505123502 17 198 1.6 6.4 0.00 0.00 0.00 64 1012.3
20260505123003 17 221 1.6 4.8 0.00 0.00 0.00 62 1012.3
20260505122504 16 157 0.0 4.8 0.00 0.00 0.00 64 1012.4
20260505122003 16 196 1.6 4.8 0.00 0.00 0.00 65 1012.5
20260505121506 16 176 0.0 4.8 0.00 0.00 0.00 67 1012.5
20260505121003 16 170 1.6 4.8 0.00 0.00 0.00 67 1012.5
20260505120504 15 188 1.6 3.2 0.00 0.00 0.00 68 1012.5
20260505120008 15 204 1.6 3.2 0.00 0.00 0.00 68 1012.4
20260505115504 15 209 1.6 4.8 0.00 0.00 0.00 68 1012.4
20260505115004 14 211 0.0 6.4 0.00 0.00 0.00 71 1012.3
20260505114527 13 229 3.2 6.4 0.00 0.00 0.00 72 1012.3
20260505114006 13 225 0.0 3.2 0.00 0.00 0.00 73 1012.2
20260505113503 13 143 0.0 9.7 0.00 0.00 0.00 73 1012.1
20260505113003 13 57 1.6 9.7 0.00 0.00 0.00 73 1012.2
20260505112502 13 132 1.6 4.8 0.00 0.00 0.00 75 1012.1
20260505112003 13 120 0.0 4.8 0.00 0.00 0.00 76 1012.2
20260505111504 13 80 0.0 6.4 0.00 0.00 0.00 76 1012.2
20260505111003 13 243 0.0 6.4 0.00 0.00 0.00 73 1012.1
20260505110503 13 199 1.6 6.4 0.00 0.00 0.00 73 1012.0
20260505102003 12 155 3.2 6.4 0.00 0.00 0.00 77 1011.2
20260505101503 12 131 3.2 6.4 0.00 0.00 0.00 76 1011.2
20260505101003 12 141 1.6 4.8 0.00 0.00 0.00 77 1011.2
20260505100503 12 99 1.6 4.8 0.00 0.00 0.00 78 1011.2
20260505100006 12 120 0.0 3.2 0.00 0.00 0.00 77 1011.2
20260505095502 12 58 0.0 4.8 0.00 0.00 0.00 76 1011.2
20260505095003 13 98 1.6 4.8 0.00 0.00 0.00 75 1011.0
20260505094510 12 109 0.0 3.2 0.00 0.00 0.00 77 1011.2
20260505094007 12 103 1.6 3.2 0.00 0.00 0.00 77 1011.2
20260505093507 13 40 1.6 3.2 0.00 0.00 0.00 73 1011.2
20260505093013 13 117 0.0 9.7 0.00 0.00 0.00 72 1011.1
20260505092506 13 122 1.6 9.7 0.00 0.00 0.00 72 1011.1
20260505092008 13 143 1.6 9.7 0.00 0.00 0.00 72 1011.0
20260505091520 13 121 0.0 3.2 0.00 0.00 0.00 73 1011.0
20260505091005 13 130 0.0 3.2 0.00 0.00 0.00 72 1011.0
20260505090506 14 155 0.0 8.0 0.00 0.00 0.00 71 1011.0
20260505090005 14 211 1.6 8.0 0.00 0.00 0.00 71 1011.0
20260505085505 14 243 3.2 8.0 0.00 0.00 0.00 72 1011.0
20260505085004 13 205 4.8 11.3 0.00 0.00 0.00 72 1010.9
20260505084506 13 202 4.8 16.1 0.00 0.00 0.00 73 1010.9
20260505084003 13 210 4.8 16.1 0.00 0.00 0.00 74 1010.9
20260505083505 13 198 1.6 6.4 0.00 0.00 0.00 75 1010.8
20260505083009 13 228 0.0 6.4 0.00 0.00 0.00 74 1010.9
20260505082505 13 210 1.6 6.4 0.00 0.00 0.00 74 1010.9
20260505082005 13 199 3.2 4.8 0.00 0.00 0.00 75 1010.9
20260505081523 13 208 0.0 4.8 0.00 0.00 0.00 75 1010.9
20260505081008 13 225 0.0 4.8 0.00 0.00 0.00 75 1010.9
20260505080508 13 144 0.0 4.8 0.00 0.00 0.00 75 1010.8
20260505080035 13 157 1.6 4.8 0.00 0.00 0.00 76 1010.7
20260505075506 12 171 1.6 4.8 0.00 0.00 0.00 77 1010.7
20260505075008 13 183 0.0 4.8 0.00 0.00 0.00 76 1010.7
20260505074526 13 219 0.0 3.2 0.00 0.00 0.00 75 1010.7
20260505074004 13 136 0.0 3.2 0.00 0.00 0.00 75 1010.7
20260505073504 13 135 0.0 4.8 0.00 0.00 0.00 75 1010.6
20260505073010 13 140 1.6 4.8 0.00 0.00 0.00 76 1010.5
20260505072504 13 167 0.0 3.2 0.00 0.00 0.00 76 1010.4
20260505072004 13 121 0.0 4.8 0.00 0.00 0.00 75 1010.5
20260505071523 13 161 1.6 4.8 0.00 0.00 0.00 75 1010.5
20260505071005 13 144 0.0 3.2 0.00 0.00 0.00 76 1010.5
20260505070505 13 144 0.0 3.2 0.00 0.00 0.00 75 1010.4
20260505070025 13 141 0.0 6.4 0.00 0.00 0.00 75 1010.4
20260505065507 13 147 1.6 6.4 0.00 0.00 0.00 75 1010.4
20260505065005 13 123 3.2 6.4 0.00 0.00 0.00 73 1010.4
20260505064524 13 125 1.6 4.8 0.00 0.00 0.00 74 1010.3
20260505064008 13 149 1.6 3.2 0.00 0.00 0.00 76 1010.4
20260505063508 13 105 0.0 4.8 0.00 0.00 0.00 76 1010.4
20260505063033 13 113 0.0 4.8 0.00 0.00 0.00 77 1010.4
20260505062509 12 140 0.0 3.2 0.00 0.00 0.00 78 1010.4
20260505062004 12 122 0.0 3.2 0.00 0.00 0.00 79 1010.4
20260505061523 12 162 0.0 3.2 0.00 0.00 0.00 80 1010.4
20260505061007 12 144 1.6 3.2 0.00 0.00 0.00 79 1010.3
20260505060507 12 149 0.0 3.2 0.00 0.00 0.00 80 1010.4
20260505060016 12 153 1.6 3.2 0.00 0.00 0.00 83 1010.4
20260505055507 11 165 1.6 3.2 0.00 0.00 0.00 84 1010.4
20260505055009 11 123 0.0 3.2 0.00 0.00 0.00 84 1010.5
20260505054524 11 123 0.0 3.2 0.00 0.00 0.00 84 1010.4
20260505054009 11 123 0.0 0.0 0.00 0.00 0.00 84 1010.4
20260505053508 11 123 0.0 1.6 0.00 0.00 0.00 83 1010.4
20260505053022 11 123 0.0 1.6 0.00 0.00 0.00 83 1010.4
20260505052505 12 123 0.0 1.6 0.00 0.00 0.00 81 1010.4
20260505052003 12 146 0.0 3.2 0.00 0.00 0.00 79 1010.4
20260505051506 13 146 0.0 3.2 0.00 0.00 0.00 77 1010.4
20260505051005 13 126 0.0 3.2 0.00 0.00 0.00 75 1010.4
20260505050505 13 126 1.6 4.8 0.00 0.00 0.00 75 1010.4
20260505041506 13 101 0.0 3.2 0.00 0.00 0.00 75 1010.4
20260505041003 13 135 0.0 3.2 0.00 0.00 0.00 75 1010.5
20260505040505 13 146 0.0 0.0 0.00 0.00 0.00 73 1010.6
20260505040009 13 146 0.0 1.6 0.00 0.00 0.00 74 1010.6
20260505035505 14 146 0.0 3.2 0.00 0.00 0.00 74 1010.6
20260505035005 14 146 0.0 3.2 0.00 0.00 0.00 73 1010.6
20260505034519 14 178 1.6 3.2 0.00 0.00 0.00 73 1010.8
20260505034005 14 123 0.0 3.2 0.00 0.00 0.00 72 1010.7
20260505033511 14 107 0.0 3.2 0.00 0.00 0.00 72 1010.7
20260505033032 14 76 0.0 3.2 0.00 0.00 0.00 72 1010.8
20260505032503 15 76 0.0 3.2 0.00 0.00 0.00 71 1010.9
20260505032003 15 76 0.0 3.2 0.00 0.00 0.00 69 1010.8
20260505031504 15 76 1.6 3.2 0.00 0.00 0.00 68 1010.7
20260505031003 16 144 0.0 3.2 0.00 0.00 0.00 66 1010.8
20260505030503 16 171 0.0 8.0 0.00 0.00 0.00 66 1010.9
20260505030010 16 173 0.0 8.0 0.00 0.00 0.00 65 1010.9
20260505025505 16 186 4.8 6.4 0.00 0.00 0.00 64 1010.9
20260505025004 16 223 3.2 6.4 0.00 0.00 0.00 65 1010.6
20260505024531 16 182 3.2 4.8 0.00 0.00 0.00 64 1010.7
20260505024005 16 242 0.0 4.8 0.00 0.00 0.00 64 1010.7
20260505023506 16 200 3.2 6.4 0.00 0.00 0.00 63 1011.0
20260505023018 17 217 1.6 6.4 0.00 0.00 0.00 62 1010.6
20260505022508 17 197 0.0 6.4 0.00 0.00 0.00 61 1010.4
20260505022009 17 236 1.6 6.4 0.00 0.00 0.00 61 1010.6
20260505021541 17 229 3.2 9.7 0.00 0.00 0.00 60 1010.7
20260505021002 17 223 3.2 9.7 0.00 0.00 0.00 60 1010.7
20260505020504 17 194 6.4 9.7 0.00 0.00 0.00 59 1010.7
20260505020006 17 196 1.6 9.7 0.00 0.00 0.00 58 1010.7
20260505015503 18 194 4.8 9.7 0.00 0.00 0.00 57 1010.7
20260505015003 18 200 4.8 9.7 0.00 0.00 0.00 58 1010.7
20260505014509 18 178 6.4 11.3 0.00 0.00 0.00 57 1010.7
20260505014005 18 201 3.2 11.3 0.00 0.00 0.00 56 1010.5
20260505013504 18 198 3.2 11.3 0.00 0.00 0.00 55 1010.4
20260505013017 18 193 4.8 11.3 0.00 0.00 0.00 54 1010.6
20260505012504 18 219 3.2 9.7 0.00 0.00 0.00 54 1010.6
20260505012009 18 161 3.2 9.7 0.00 0.00 0.00 54 1010.3
20260505011527 18 194 3.2 8.0 0.00 0.00 0.00 53 1010.4
20260505011009 18 264 1.6 6.4 0.00 0.00 0.00 53 1010.3
20260505010508 18 204 3.2 6.4 0.00 0.00 0.00 54 1010.4
20260505010024 18 220 1.6 4.8 0.00 0.00 0.00 53 1010.3
20260505005509 18 140 0.0 3.2 0.00 0.00 0.00 53 1010.0
20260505005003 18 212 0.0 3.2 0.00 0.00 0.00 53 1010.1
20260505004516 19 243 0.0 3.2 0.00 0.00 0.00 52 1010.1
20260505004003 19 132 0.0 4.8 0.00 0.00 0.00 51 1010.0
20260505003504 20 177 0.0 9.7 0.00 0.00 0.00 50 1010.0
20260505003011 20 172 1.6 9.7 0.00 0.00 0.00 49 1010.0
20260505002507 20 209 4.8 14.5 0.00 0.00 0.00 48 1010.1
20260505002004 20 175 6.4 16.1 0.00 0.00 0.00 48 1010.1
20260505001517 20 200 8.0 16.1 0.00 0.00 0.00 48 1010.0
20260505001006 20 196 4.8 17.7 0.00 0.00 0.00 47 1009.9
20260505000507 20 234 6.4 17.7 0.00 0.00 0.00 47 1009.8
20260505000021 21 225 4.8 16.1 0.00 0.00 0.00 47 1009.8
20260504235508 21 247 6.4 16.1 0.00 0.00 0.00 47 1009.8
20260504235010 21 210 6.4 12.9 0.00 0.00 0.00 47 1009.7
20260504234524 21 221 3.2 9.7 0.00 0.00 0.00 46 1009.7
20260504234012 21 211 3.2 12.9 0.00 0.00 0.00 47 1009.7
20260504233511 21 255 4.8 12.9 0.00 0.00 0.00 45 1009.7
20260504233012 21 219 4.8 12.9 0.00 0.00 0.00 45 1009.6
20260504232504 21 208 8.0 22.5 0.00 0.00 0.00 45 1009.5
20260504232007 21 207 9.7 25.7 0.00 0.00 0.00 44 1009.5
20260504231517 21 202 14.5 25.7 0.00 0.00 0.00 43 1009.6
20260504231004 22 216 12.9 24.1 0.00 0.00 0.00 42 1009.6
20260504230507 22 207 9.7 22.5 0.00 0.00 0.00 42 1009.7
20260504230022 22 215 11.3 20.9 0.00 0.00 0.00 41 1009.5
20260504225512 22 167 9.7 24.1 0.00 0.00 0.00 41 1009.5
20260504225009 22 207 4.8 24.1 0.00 0.00 0.00 42 1009.5
20260504224524 22 144 11.3 27.4 0.00 0.00 0.00 41 1009.5
20260504224007 22 221 9.7 29.0 0.00 0.00 0.00 40 1009.4
20260504223510 22 214 16.1 29.0 0.00 0.00 0.00 39 1009.4
20260504223034 22 253 11.3 22.5 0.00 0.00 0.00 39 1009.2
20260504222510 22 173 9.7 25.7 0.00 0.00 0.00 39 1009.1
20260504222014 22 165 11.3 25.7 0.00 0.00 0.00 38 1009.2
20260504221512 23 208 8.0 20.9 0.00 0.00 0.00 38 1009.1
20260504221004 23 216 6.4 20.9 0.00 0.00 0.00 38 1009.1
20260504220505 23 263 9.7 20.9 0.00 0.00 0.00 39 1009.1
20260504220004 23 194 9.7 24.1 0.00 0.00 0.00 37 1009.1
20260504215503 23 244 11.3 24.1 0.00 0.00 0.00 37 1009.1
20260504215003 23 223 9.7 22.5 0.00 0.00 0.00 37 1009.1
20260504214503 23 231 8.0 17.7 0.00 0.00 0.00 37 1009.1
20260504214007 23 194 6.4 22.5 0.00 0.00 0.00 37 1009.0
20260504213505 23 235 12.9 22.5 0.00 0.00 0.00 35 1009.0
20260504213003 24 201 12.9 22.5 0.00 0.00 0.00 35 1009.1
20260504212504 24 283 6.4 24.1 0.00 0.00 0.00 36 1008.9
20260504212002 24 189 16.1 22.5 0.00 0.00 0.00 35 1009.0
20260504211504 24 203 14.5 20.9 0.00 0.00 0.00 35 1008.9
20260504211001 24 236 4.8 22.5 0.00 0.00 0.00 35 1008.8
20260504210501 24 202 11.3 22.5 0.00 0.00 0.00 35 1008.9
20260504210003 24 197 6.4 24.1 0.00 0.00 0.00 37 1008.8
20260504205503 24 186 9.7 24.1 0.00 0.00 0.00 37 1008.9
20260504205002 24 249 12.9 24.1 0.00 0.00 0.00 35 1008.7